• en Suisse
  • Liste des pays
  • À 7 jours
  • Température de l'eau
  • Carte satellitaire
  • Carte météo
  • Widgets météo
  • user-avatar
    Se connecter

    Météo par heure à Seredivka

    Ce jour, 23 Avril, Lundi

    Heure Température Précipitation Vent Pression Humidité
    00:00 +6°C° 0 mm 4 m/s 741 mmHg 77%
    01:00 +5°C° 0 mm 3 m/s 742 mmHg 80%
    02:00 +4°C° 0 mm 3 m/s 742 mmHg 84%
    03:00 +4°C° 0 mm 3 m/s 742 mmHg 85%
    04:00 +3°C° 0 mm 3 m/s 743 mmHg 87%
    05:00 +3°C° 0 mm 3 m/s 743 mmHg 88%
    06:00 +4°C° 0 mm 4 m/s 744 mmHg 79%
    07:00 +5°C° 0 mm 4 m/s 744 mmHg 69%
    08:00 +6°C° 0 mm 5 m/s 745 mmHg 59%
    09:00 +6°C° 0 mm 5 m/s 745 mmHg 55%
    10:00 +7°C° 0 mm 5 m/s 745 mmHg 50%
    11:00 +7°C° 0 mm 5 m/s 745 mmHg 46%
    12:00 +8°C° 0 mm 5 m/s 746 mmHg 45%
    13:00 +8°C° 0 mm 5 m/s 746 mmHg 43%
    14:00 +9°C° 0 mm 5 m/s 746 mmHg 41%
    15:00 +8°C° 0 mm 4 m/s 746 mmHg 42%
    16:00 +8°C° 0 mm 4 m/s 746 mmHg 42%
    17:00 +8°C° 0 mm 4 m/s 747 mmHg 43%
    18:00 +8°C° 0 mm 3 m/s 747 mmHg 46%
    19:00 +7°C° 0 mm 2 m/s 747 mmHg 49%
    20:00 +7°C° 0 mm 1 m/s 748 mmHg 53%
    21:00 +6°C° 0 mm 1 m/s 748 mmHg 54%
    22:00 +6°C° 0 mm 1 m/s 748 mmHg 56%
    23:00 +4°C° 0 mm 0 m/s 748 mmHg 57%

    Demain, 24 Avril, Mardi

    Heure Température Précipitation Vent Pression Humidité
    00:00 +4°C° 0 mm 0 m/s 748 mmHg 58%
    01:00 +5°C° 0 mm 1 m/s 749 mmHg 59%
    02:00 +4°C° 0 mm 1 m/s 749 mmHg 60%
    03:00 +4°C° 0 mm 1 m/s 749 mmHg 62%
    04:00 +3°C° 0 mm 2 m/s 749 mmHg 64%
    05:00 +3°C° 0 mm 2 m/s 749 mmHg 66%
    06:00 +5°C° 0 mm 2 m/s 749 mmHg 61%
    07:00 +7°C° 0 mm 3 m/s 749 mmHg 57%
    08:00 +9°C° 0 mm 3 m/s 749 mmHg 52%
    09:00 +10°C° 0 mm 4 m/s 749 mmHg 49%
    10:00 +12°C° 0 mm 4 m/s 748 mmHg 47%
    11:00 +13°C° 0 mm 4 m/s 748 mmHg 44%
    12:00 +13°C° 0,1 mm 4 m/s 748 mmHg 48%
    13:00 +13°C° 0,1 mm 4 m/s 747 mmHg 52%
    14:00 +13°C° 0,1 mm 4 m/s 747 mmHg 55%
    15:00 +12°C° 0,4 mm 4 m/s 746 mmHg 62%
    16:00 +11°C° 0,4 mm 4 m/s 746 mmHg 69%
    17:00 +10°C° 0,4 mm 4 m/s 745 mmHg 76%
    18:00 +10°C° 0,6 mm 4 m/s 745 mmHg 80%
    19:00 +8°C° 0,6 mm 5 m/s 745 mmHg 84%
    20:00 +8°C° 0,6 mm 5 m/s 744 mmHg 87%
    21:00 +8°C° 0,4 mm 5 m/s 744 mmHg 89%
    22:00 +10°C° 0,4 mm 4 m/s 744 mmHg 91%
    23:00 +10°C° 0,4 mm 4 m/s 743 mmHg 93%

    Après-demain, 25 Avril, Mercredi

    Heure Température Précipitation Vent Pression Humidité
    00:00 +10°C° 0,1 mm 4 m/s 743 mmHg 94%
    01:00 +10°C° 0,1 mm 4 m/s 743 mmHg 94%
    02:00 +10°C° 0,1 mm 4 m/s 743 mmHg 95%
    03:00 +10°C° 0 mm 4 m/s 743 mmHg 95%
    04:00 +8°C° 0 mm 4 m/s 743 mmHg 95%
    05:00 +8°C° 0 mm 4 m/s 743 mmHg 95%
    06:00 +10°C° 0 mm 4 m/s 744 mmHg 90%
    07:00 +10°C° 0 mm 4 m/s 744 mmHg 86%
    08:00 +11°C° 0 mm 4 m/s 744 mmHg 81%
    09:00 +13°C° 0 mm 5 m/s 745 mmHg 74%
    10:00 +15°C° 0 mm 5 m/s 745 mmHg 66%
    11:00 +16°C° 0 mm 6 m/s 745 mmHg 58%
    12:00 +17°C° 0 mm 6 m/s 745 mmHg 55%
    13:00 +17°C° 0 mm 6 m/s 745 mmHg 53%
    14:00 +19°C° 0 mm 6 m/s 745 mmHg 50%
    15:00 +19°C° 0 mm 5 m/s 745 mmHg 54%
    16:00 +18°C° 0 mm 4 m/s 745 mmHg 57%
    17:00 +18°C° 0 mm 4 m/s 745 mmHg 60%
    18:00 +17°C° 0 mm 3 m/s 745 mmHg 65%
    19:00 +16°C° 0 mm 3 m/s 745 mmHg 69%
    20:00 +14°C° 0 mm 3 m/s 745 mmHg 73%
    21:00 +13°C° 0 mm 3 m/s 745 mmHg 75%
    22:00 +13°C° 0 mm 3 m/s 745 mmHg 76%
    23:00 +13°C° 0 mm 4 m/s 745 mmHg 77%

    26 Avril, Jeudi

    Heure Température Précipitation Vent Pression Humidité
    00:00 +12°C° 0 mm 4 m/s 745 mmHg 77%
    01:00 +12°C° 0 mm 4 m/s 745 mmHg 77%
    02:00 +12°C° 0 mm 4 m/s 745 mmHg 77%
    03:00 +12°C° 0 mm 5 m/s 744 mmHg 76%
    04:00 +12°C° 0 mm 5 m/s 744 mmHg 75%
    05:00 +12°C° 0 mm 5 m/s 744 mmHg 74%
    06:00 +14°C° 0 mm 6 m/s 744 mmHg 69%
    07:00 +16°C° 0 mm 7 m/s 744 mmHg 63%
    08:00 +18°C° 0 mm 8 m/s 744 mmHg 57%
    09:00 +20°C° 0,1 mm 8 m/s 743 mmHg 57%
    10:00 +21°C° 0,1 mm 9 m/s 743 mmHg 56%
    11:00 +21°C° 0,1 mm 9 m/s 743 mmHg 55%
    12:00 +22°C° 0,5 mm 9 m/s 743 mmHg 56%
    13:00 +22°C° 0,5 mm 9 m/s 742 mmHg 57%
    14:00 +22°C° 0,5 mm 9 m/s 742 mmHg 57%
    15:00 +21°C° 0,5 mm 8 m/s 743 mmHg 61%
    16:00 +20°C° 0,5 mm 7 m/s 743 mmHg 64%
    17:00 +19°C° 0,5 mm 5 m/s 743 mmHg 67%
    18:00 +17°C° 0 mm 5 m/s 744 mmHg 70%
    19:00 +15°C° 0 mm 4 m/s 745 mmHg 72%
    20:00 +13°C° 0 mm 4 m/s 746 mmHg 75%
    21:00 +12°C° 0 mm 3 m/s 746 mmHg 75%
    22:00 +11°C° 0 mm 3 m/s 747 mmHg 76%
    23:00 +10°C° 0 mm 2 m/s 747 mmHg 77%

    27 Avril, Vendredi

    Heure Température Précipitation Vent Pression Humidité
    00:00 +10°C° 0 mm 2 m/s 748 mmHg 76%
    01:00 +10°C° 0 mm 1 m/s 748 mmHg 76%
    02:00 +10°C° 0 mm 1 m/s 748 mmHg 75%
    03:00 +10°C° 0 mm 1 m/s 749 mmHg 75%
    04:00 +10°C° 0 mm 1 m/s 749 mmHg 74%
    05:00 +9°C° 0 mm 1 m/s 749 mmHg 73%
    06:00 +11°C° 0 mm 1 m/s 749 mmHg 67%
    07:00 +13°C° 0 mm 2 m/s 750 mmHg 61%
    08:00 +15°C° 0 mm 2 m/s 750 mmHg 54%
    09:00 +16°C° 0 mm 3 m/s 750 mmHg 50%
    10:00 +17°C° 0 mm 3 m/s 749 mmHg 45%
    11:00 +19°C° 0 mm 4 m/s 749 mmHg 41%
    12:00 +19°C° 0 mm 4 m/s 749 mmHg 40%
    13:00 +20°C° 0 mm 4 m/s 748 mmHg 38%
    14:00 +21°C° 0 mm 4 m/s 748 mmHg 37%
    15:00 +21°C° 0 mm 3 m/s 748 mmHg 41%
    16:00 +20°C° 0 mm 3 m/s 747 mmHg 44%
    17:00 +20°C° 0 mm 2 m/s 747 mmHg 48%
    18:00 +19°C° 0 mm 3 m/s 747 mmHg 50%
    19:00 +18°C° 0 mm 3 m/s 747 mmHg 53%
    20:00 +17°C° 0 mm 4 m/s 747 mmHg 55%
    21:00 +15°C° 0,1 mm 4 m/s 746 mmHg 57%
    22:00 +15°C° 0,1 mm 4 m/s 746 mmHg 59%
    23:00 +15°C° 0,1 mm 4 m/s 746 mmHg 62%

    28 Avril, Samedi

    Heure Température Précipitation Vent Pression Humidité
    00:00 +15°C° 0,2 mm 4 m/s 746 mmHg 68%
    01:00 +14°C° 0,2 mm 4 m/s 746 mmHg 74%
    02:00 +14°C° 0,2 mm 4 m/s 746 mmHg 80%
    03:00 +13°C° 0 mm 3 m/s 746 mmHg 84%
    04:00 +13°C° 0 mm 3 m/s 747 mmHg 88%
    05:00 +12°C° 0 mm 3 m/s 747 mmHg 93%
    06:00 +13°C° 0 mm 4 m/s 748 mmHg 87%
    07:00 +14°C° 0 mm 4 m/s 748 mmHg 81%
    08:00 +15°C° 0 mm 4 m/s 748 mmHg 75%
    09:00 +17°C° 0 mm 4 m/s 749 mmHg 68%
    10:00 +18°C° 0 mm 4 m/s 749 mmHg 61%
    11:00 +19°C° 0 mm 3 m/s 749 mmHg 54%
    12:00 +20°C° 0 mm 4 m/s 749 mmHg 50%
    13:00 +20°C° 0 mm 4 m/s 749 mmHg 46%
    14:00 +21°C° 0 mm 4 m/s 749 mmHg 43%
    15:00 +20°C° 0 mm 4 m/s 749 mmHg 44%
    16:00 +19°C° 0 mm 3 m/s 749 mmHg 46%
    17:00 +19°C° 0 mm 3 m/s 749 mmHg 47%
    18:00 +17°C° 0 mm 3 m/s 750 mmHg 51%
    19:00 +14°C° 0 mm 3 m/s 750 mmHg 55%
    20:00 +13°C° 0 mm 3 m/s 750 mmHg 58%
    21:00 +12°C° 0 mm 3 m/s 751 mmHg 60%
    22:00 +11°C° 0 mm 3 m/s 751 mmHg 61%
    23:00 +10°C° 0 mm 3 m/s 751 mmHg 63%
    Voir plus